This is the latest recevied weather packets stored in our database for station/object OE6ACM-14. If no packets are shown the sender has not sent any weather packets the latest 10 day(s).
| Time | Temp. | Humidity | Pressure | Rain* | Wind** | Luminosity | Snow |
|---|---|---|---|---|---|---|---|
| 1777462965 | 12.78° C | 56% | 931.7 hPa | - | - | - | - |
| 1777462665 | 11.67° C | 59% | 931.7 hPa | - | - | - | - |
| 1777462365 | 12.78° C | 55% | 931.7 hPa | - | - | - | - |
| 1777462065 | 12.78° C | 57% | 931.7 hPa | - | - | - | - |
| 1777461765 | 12.22° C | 58% | 931.8 hPa | - | - | - | - |
| 1777461465 | 11.67° C | 62% | 931.9 hPa | - | - | - | - |
| 1777461165 | 11.11° C | 60% | 931.9 hPa | - | - | - | - |
| 1777460865 | 11.11° C | 60% | 931.9 hPa | - | - | - | - |
| 1777460565 | 11.67° C | 60% | 931.9 hPa | - | - | - | - |
| 1777460265 | 11.67° C | 58% | 931.9 hPa | - | - | - | - |
| 1777459965 | 12.22° C | 58% | 931.9 hPa | - | - | - | - |
| 1777459665 | 12.22° C | 59% | 931.9 hPa | - | - | - | - |
| 1777459365 | 12.22° C | 58% | 931.9 hPa | - | - | - | - |
| 1777459065 | 11.67° C | 58% | 931.9 hPa | - | - | - | - |
| 1777458765 | 12.22° C | 60% | 932 hPa | - | - | - | - |
| 1777458465 | 12.22° C | 58% | 931.9 hPa | - | - | - | - |
| 1777458165 | 12.78° C | 58% | 931.9 hPa | - | - | - | - |
| 1777457865 | 12.78° C | 60% | 932 hPa | - | - | - | - |
| 1777457565 | 12.22° C | 60% | 932 hPa | - | - | - | - |
| 1777457265 | 11.67° C | 62% | 932 hPa | - | - | - | - |
| 1777456965 | 11.11° C | 62% | 932 hPa | - | - | - | - |
| 1777456665 | 10.56° C | 62% | 932 hPa | - | - | - | - |
| 1777456365 | 11.11° C | 60% | 932 hPa | - | - | - | - |
| 1777456065 | 12.22° C | 58% | 931.9 hPa | - | - | - | - |
| 1777455765 | 12.78° C | 59% | 931.9 hPa | - | - | - | - |
* Rain since midnight (hover to see other rain measurements)
** Current wind speed in m/s (hover to see current wind gust speed)